date,batt_volt,AirTemp_C,Solar_kW,RH,Manual_BP,StationID,WS_ms,PTemp,WS_15min_max,Prog_Sig,Solar_Raw,Bar_mbar,Solar_MJ,Max_WS_2min,Pressure_Raw,Rain_mm,WD_15min_ave,Max_AirTemp_1min,WindDir,WS_15min_med,WS_15min_ave,Elevation_Correction
2021-08-01T00:05:15Z,13.24041,14.5054,0.0004820386,87.36447,0,1156,5.292,15.36042,9.329599,43690,0.0337427,1009.077,2.410193e-06,5.782,1007.276,0,155.544269347,14.54,159.4132,5.2528,5.40890819412,1.80078
2021-08-01T00:20:15Z,13.24641,14.20143,0.0,87.87407,0,1156,3.1164,14.87694,5.9584,43690,0.0,1009.077,0.0,4.763,1007.276,0,159.473027874,14.34,158.9589,4.41,4.38249122807,1.80078
2021-08-01T00:35:14Z,13.24775,14.20529,0.0,88.42237,0,1156,3.8024,14.49061,6.272,43690,0.0,1009.077,0.0,6.272,1007.276,0,159.520734472,14.37,171.8148,4.2532,4.29263195266,1.80078
2021-08-01T00:50:17Z,13.26639,14.38591,0.0,88.67784,0,1156,6.487599,14.22854,7.1736,43690,0.0,1009.077,0.0,6.919,1007.276,0,157.578983053,14.49,158.2091,5.1744,5.14784140237,1.80078
2021-08-01T01:05:12Z,13.26697,14.48995,0.0,88.00398,0,1156,5.0764,14.06135,8.5848,43690,0.0,1009.898,0.0,6.272,1008.097,0,156.654575375,14.63,142.6013,6.3406,6.31726654762,1.80078
2021-08-01T01:20:16Z,13.2725,14.49,0.0,87.97018,0,1156,6.0172,13.94387,7.016799,43690,0.0,1009.898,0.0,7.017,1008.097,0,156.763286798,14.59,158.8417,5.3704,5.37581880588,1.80078
2021-08-01T01:35:15Z,13.2725,14.59166,0.0,88.1735,0,1156,5.7624,13.84898,7.8008,43690,0.0,1009.898,0.0,6.801,1008.097,0,158.578826609,14.63,156.4358,6.1348,6.17933485207,1.80078
2021-08-01T01:50:14Z,13.2725,14.32057,0.0,88.85123,0,1156,3.2732,13.77668,7.3304,43690,0.0,1009.898,0.0,6.507,1008.097,0,159.612716834,14.35,166.0837,5.1842,5.19516665476,1.80078
2021-08-01T02:05:17Z,13.2725,14.08336,0.0,89.6984,0,1156,4.9196,13.6818,6.2328,43690,0.0,1009.574,0.0,6.194,1007.774,0,161.164207097,14.22,161.6086,4.3316,4.38808047337,1.80078
2021-08-01T02:20:18Z,13.2725,14.28668,0.0,89.32565,0,1156,3.8808,13.56432,6.5072,43690,0.0,1009.574,0.0,4.861,1007.774,0,159.525726593,14.32,157.8072,4.5864,4.51623431953,1.80078
2021-08-01T02:35:14Z,13.2725,14.35445,0.0,88.91901,0,1156,4.9588,13.49428,6.6052,43690,0.0,1009.574,0.0,6.037,1007.774,0,159.032511071,14.42,157.5425,4.5864,4.62396664881,1.80078
2021-08-01T02:50:15Z,13.2725,14.38834,0.0,89.05455,0,1156,4.7824,13.44684,6.8012,43690,0.0,1009.574,0.0,5.821,1007.774,0,157.271182714,14.39,161.1033,5.3116,5.3186745503,1.80078
2021-08-01T03:05:18Z,13.2725,14.35445,0.0,89.1901,0,1156,5.8996,13.42424,6.958,43690,0.0,1009.737,0.0,6.958,1007.936,0,156.318884587,14.46,154.0779,5.4096,5.40762839645,1.80078
2021-08-01T03:20:16Z,13.27802,14.28668,0.0,88.51237,0,1156,5.8212,13.3994,7.859599,43690,0.0,1009.737,0.0,6.115,1007.936,0,158.597516909,14.46,153.0674,5.5272,5.49727808284,1.80078
2021-08-01T03:35:19Z,13.27802,14.32057,0.0,88.78346,0,1156,5.8408,13.3768,7.056,43690,0.0,1009.737,0.0,6.37,1007.936,0,156.572913907,14.39,159.0823,5.6448,5.58542352941,1.80078
2021-08-01T03:50:17Z,13.27802,14.45612,0.0,88.10572,0,1156,5.7036,13.35195,6.8404,43690,0.0,1009.737,0.0,5.86,1007.936,0,158.103573826,14.52,159.1305,5.6056,5.56743763529,1.80078
2021-08-01T04:05:19Z,13.27802,14.35445,0.0,88.74958,0,1156,7.1932,13.32936,7.5264,43690,0.0,1010.306,0.0,6.978,1008.506,0,157.898011629,14.46,154.6794,6.076,5.93234349412,1.80078
2021-08-01T04:20:21Z,13.27802,14.25279,0.0,89.35954,0,1156,4.5864,13.32936,7.8792,43690,0.0,1010.306,0.0,4.959,1008.506,0,156.379119164,14.29,158.4087,5.8016,5.51184088304,1.80078
2021-08-01T04:35:22Z,13.2725,14.04947,0.0,90.57946,0,1156,5.3508,13.25932,5.5664,43690,0.0,1010.306,0.0,5.449,1008.506,0,157.20953168,14.12,156.2914,4.5864,4.51630117647,1.80078
2021-08-01T04:50:21Z,13.28354,14.04947,0.0,91.46052,0,1156,5.7428,13.18702,6.9384,43690,0.0,1010.306,0.0,6.938,1008.506,0,154.959667562,14.12,152.7787,4.802,4.85987762941,1.80078
2021-08-01T05:05:20Z,13.27802,14.11725,0.0,91.35886,0,1156,5.9192,13.18702,6.7228,43690,0.0,1010.062,0.0,6.292,1008.262,0,155.892430523,14.19,159.5635,5.5076,5.502613,1.80078
2021-08-01T05:20:19Z,13.27802,14.18502,0.0,91.15554,0,1156,4.2924,13.18702,6.566,43690,0.0,1010.062,0.0,6.174,1008.262,0,158.690901132,14.25,146.1382,5.096,5.11386034911,1.80078
2021-08-01T05:35:23Z,13.27802,14.18502,0.0,91.35886,0,1156,4.4688,13.18702,6.566,43690,0.0,1010.062,0.0,5.9,1008.262,0,159.495871508,14.22,172.243,5.0176,4.99511764706,1.80078
2021-08-01T05:50:23Z,13.28354,14.04947,0.0,91.7655,0,1156,5.2332,13.16443,6.7032,43690,0.0,1010.062,0.0,5.743,1008.262,0,159.663220269,14.12,151.2629,4.5668,4.55798579882,1.80078
2021-08-01T06:05:21Z,13.28354,14.11725,0.0,92.00271,0,1156,5.7036,13.14183,6.3112,43690,0.0,1010.062,0.0,6.174,1008.262,0,157.78125032,14.15,156.9651,5.1744,5.14343431953,1.80078
2021-08-01T06:20:20Z,13.28354,14.08336,0.0,92.17214,0,1156,4.508,13.14183,6.7228,43690,0.0,1010.062,0.0,5.762,1008.262,0,158.281062503,14.12,154.102,5.3508,5.32795266272,1.80078
2021-08-01T06:35:21Z,13.27802,14.04947,0.0,92.17214,0,1156,4.508,13.11699,7.5852,43690,0.0,1010.062,0.0,6.39,1008.262,0,157.033953643,14.08,170.631,5.2724,5.38489698817,1.80078
2021-08-01T06:50:20Z,13.28354,13.64283,0.0,92.71434,0,1156,2.94,13.04695,5.2724,43690,0.0,1010.062,0.0,4.43,1008.262,0,157.531493735,13.78,159.4192,4.018,3.9355408284,1.80078
2021-08-01T07:05:22Z,13.28377,13.67672,0.0,93.42595,0,1156,5.1352,12.92947,5.8996,43690,0.0,1010.876,0.0,5.9,1009.075,0,158.129865793,13.68,155.2569,3.9004,3.95896804734,1.80078
2021-08-01T07:20:23Z,13.28909,13.71272,0.0,93.66685,0,1156,4.1552,12.88428,6.6444,43690,0.0,1010.876,0.0,5.998,1009.075,0,153.998176782,13.78,157.8134,4.9588,5.03615621302,1.80078
2021-08-01T07:35:22Z,13.28459,13.84883,0.0,93.80337,0,1156,4.3708,12.90687,6.6444,43690,0.0,1010.876,0.0,5.821,1009.075,0,153.622626389,13.85,157.2857,5.6056,5.56103183439,1.80078
2021-08-01T07:50:25Z,13.28362,13.84755,0.0,93.69948,0,1156,5.5076,12.92947,6.664,43690,0.0,1010.876,0.0,6.664,1009.075,0,156.032618972,13.85,147.2969,4.802,4.89239058824,1.80078
2021-08-01T08:05:24Z,13.28401,13.81307,0.0,93.52902,0,1156,5.8604,12.97691,6.6444,43690,0.0,1010.481,0.0,6.056,1008.68,0,153.203637802,13.88,155.3554,5.782,5.69250566038,1.80078
2021-08-01T08:20:22Z,13.28365,13.81237,0.0,93.46002,0,1156,5.9584,13.02436,6.0368,43690,0.0,1010.481,0.0,5.86,1008.68,0,155.430702675,13.88,157.1338,5.3704,5.35336666667,1.80078
2021-08-01T08:35:22Z,13.28354,13.7784,0.0,93.45988,0,1156,5.0764,13.04695,6.1348,43690,0.0,1010.481,0.0,5.939,1008.68,0,157.319004711,13.91,157.8794,5.3508,5.33537514793,1.80078
2021-08-01T08:50:23Z,13.28354,13.84618,0.002411007,93.42599,0,1156,5.8212,13.0718,6.272,43690,0.1687705,1010.481,1.205503e-05,6.017,1008.68,0,156.485209479,13.88,151.0946,5.2136,5.16871715976,1.80078
2021-08-01T09:05:25Z,13.28354,13.74451,0.007715221,93.59543,0,1156,3.4888,13.0718,5.8604,43690,0.5400655,1011.201,3.857611e-05,4.586,1009.4,0,153.183318436,13.81,163.3409,4.41,4.508,1.80078
2021-08-01T09:20:23Z,13.28354,13.37176,0.02121686,93.76486,0,1156,2.7832,12.97691,3.8808,43690,1.48518,1011.201,0.0001060843,3.822,1009.4,0,162.838627556,13.51,170.607,3.0772,2.98093964497,1.80078
2021-08-01T09:35:27Z,13.28906,13.37462,0.03375409,93.97322,0,1156,1.5484,12.85943,3.9984,43690,2.362787,1011.201,0.0001687705,2.528,1009.4,0,159.702617932,13.44,161.9301,2.1168,2.20084941118,1.80078
2021-08-01T09:50:25Z,13.29044,13.68053,0.08245642,94.04259,0,1156,4.2728,12.81424,4.5472,43690,5.77195,1011.201,0.0004122821,4.547,1009.4,0,156.993133409,13.68,159.1417,2.842,2.76035266272,1.80078
2021-08-01T10:05:24Z,13.27928,13.98369,0.09933347,93.59885,0,1156,4.4296,13.14183,4.508,43690,6.953343,1011.329,0.0004966673,3.685,1009.528,0,159.537657091,14.12,153.5783,3.2732,3.25267218935,1.80078
2021-08-01T10:20:23Z,13.256,14.52395,0.217955,92.68056,0,1156,4.3904,13.82413,5.194,43690,15.25685,1011.329,0.001089775,4.626,1009.528,0,152.403354648,14.56,148.7369,4.4688,4.43261538462,1.80078
2021-08-01T10:35:25Z,13.23939,14.96444,0.2622923,90.81671,0,1156,3.92,14.7075,4.998,43690,18.36046,1011.329,0.001311462,4.822,1009.528,0,151.402471809,15.07,152.8509,4.41,4.35154792899,1.80078
2021-08-01T10:50:26Z,13.22977,14.77949,0.1296894,89.8763,0,1156,1.96,15.16613,4.41,43690,9.078258,1011.329,0.000648447,2.744,1009.528,0,157.94177168,14.81,172.9639,3.136,3.07337278107,1.80078
2021-08-01T11:05:28Z,13.22975,14.70894,0.09737436,89.02482,0,1156,2.1168,15.33557,3.724,43690,6.816205,1011.849,0.0004868718,1.725,1010.048,0,160.211464002,14.88,155.181,2.4304,2.41404733728,1.80078
2021-08-01T11:20:29Z,13.21284,15.75896,0.2776545,85.77259,0,1156,1.47,15.92071,3.6652,43690,19.43581,1011.849,0.001388272,2.156,1010.048,0,156.706020153,15.83,154.5794,2.5676,2.57919763314,1.80078
2021-08-01T11:35:29Z,13.19629,16.13146,0.3123611,84.01088,0,1156,3.1164,16.76116,3.4104,43690,21.86528,1011.849,0.001561806,3.41,1010.048,0,152.686274095,16.3,147.8686,1.8816,1.9686982213,1.80078
2021-08-01T11:50:30Z,13.17856,17.24461,0.5109611,79.9731,0,1156,3.6848,17.81623,4.41,43690,35.76728,1011.849,0.002554805,3.704,1010.048,0,144.88727093,17.25,142.6858,3.626,3.6692591716,1.80078
2021-08-01T12:05:27Z,13.15337,16.75657,0.5349778,81.54523,0,1156,2.4304,18.74026,4.018,43690,37.44845,1013.156,0.002674889,3.567,1011.355,0,149.008576499,16.82,145.2477,3.1654,3.13378333333,1.80078
2021-08-01T12:20:30Z,13.13116,17.33156,0.6071686,77.48058,0,1156,2.744,19.94218,4.3708,43690,42.5018,1013.156,0.003035843,2.92,1011.355,0,141.731374292,17.4,145.6066,3.136,3.08844970414,1.80078
2021-08-01T12:35:31Z,13.10506,17.51673,0.3450233,78.06567,0,1156,2.7636,20.9611,3.528,43690,24.15163,1013.156,0.001725117,3.077,1011.355,0,140.392533974,17.62,136.9802,2.5872,2.54776804734,1.80078
2021-08-01T12:50:27Z,13.09915,17.31216,0.6339492,77.82673,0,1156,3.1556,21.69762,3.6848,43690,44.37644,1013.156,0.003169746,3.685,1011.355,0,137.880782551,17.35,139.5966,2.6264,2.65206666667,1.80078
2021-08-01T13:05:28Z,13.08811,17.5491,0.6989668,77.75898,0,1156,2.7244,22.3641,3.724,43690,48.92768,1012.634,0.003494834,3.606,1010.833,0,142.743922599,17.65,150.4604,2.9204,2.91031005917,1.80078
2021-08-01T13:20:32Z,13.07587,17.98148,0.7481014,74.73619,0,1156,4.0376,23.1232,4.6844,43690,52.3671,1012.634,0.003740508,4.175,1010.833,0,142.489634316,18.22,143.1587,3.528,3.47987948718,1.80078
2021-08-01T13:35:31Z,13.06311,18.07692,0.7543638,76.08212,0,1156,3.4496,23.78291,4.8216,43690,52.80546,1012.634,0.003771819,3.802,1010.833,0,142.636572616,18.38,150.737,3.7632,3.69233846154,1.80078
2021-08-01T13:50:32Z,13.05618,17.7329,0.7803593,75.05954,0,1156,4.2924,24.21894,4.9,43690,54.62515,1012.634,0.003901796,4.763,1010.833,0,149.461707413,17.87,146.6859,3.822,3.82861065089,1.80078
2021-08-01T14:05:29Z,13.05613,18.13877,0.8105997,74.99157,0,1156,2.9596,24.48101,4.704,43690,56.74198,1013.436,0.004052998,3.273,1011.635,0,149.458270897,18.38,144.7391,3.2536,3.2508,1.80078
2021-08-01T14:20:32Z,13.05062,18.71407,0.8409178,72.69038,0,1156,2.9988,24.74761,3.4496,43690,58.86425,1013.436,0.004204589,2.822,1011.635,0,145.628424061,18.95,145.9645,2.6656,2.63115502959,1.80078
2021-08-01T14:35:34Z,13.04511,19.18784,0.8653749,70.9645,0,1156,3.0968,25.0142,3.724,43690,60.57624,1013.436,0.004326874,3.724,1011.635,0,148.210556071,19.39,149.7608,2.744,2.65597396331,1.80078
2021-08-01T14:50:30Z,13.03893,18.95004,0.8927967,72.04629,0,1156,3.8808,25.19268,5.5076,43690,62.49577,1013.436,0.004463984,4.92,1011.635,0,148.705768094,18.95,143.031,3.6554,3.77335,1.80078
2021-08-01T15:05:34Z,13.0376,19.95767,0.9091688,72.03718,0,1156,2.3912,25.25142,4.7432,43690,63.64182,1013.364,0.004545844,3.704,1011.563,0,146.217466021,19.89,131.4575,3.2732,3.27795502959,1.80078
2021-08-01T15:20:32Z,13.03556,20.05019,0.7916703,71.58659,0,1156,3.7044,25.43216,4.704,43690,55.41692,1013.364,0.003958352,3.489,1011.563,0,143.694694415,19.98,135.7855,3.3712,3.33445,1.80078
2021-08-01T15:35:33Z,13.03049,19.71029,0.939025,70.50212,0,1156,2.6852,25.6129,3.9004,43690,65.73175,1013.364,0.004695125,3.587,1011.563,0,134.265051057,19.88,132.0829,3.0184,2.96099171598,1.80078
2021-08-01T15:50:34Z,13.0297,19.30315,0.9534716,68.91073,0,1156,3.5868,25.6739,3.8808,43690,66.74301,1013.364,0.004767358,3.783,1011.563,0,143.113202688,19.47,147.9568,3.234,3.18378224852,1.80078
2021-08-01T16:05:32Z,13.02968,20.55522,0.9558794,65.52819,0,1156,3.1752,25.5519,5.1744,43690,66.91155,1012.45,0.004779396,4.038,1010.65,0,143.485522824,20.62,146.7087,3.8612,3.86411666667,1.80078
2021-08-01T16:20:36Z,13.0297,20.75822,0.9631026,66.71225,0,1156,2.7832,25.4909,3.8612,43690,67.41718,1012.45,0.004815513,3.704,1010.65,0,143.938220419,20.56,165.828,3.0184,2.99972781065,1.80078
2021-08-01T16:35:34Z,13.03577,20.75972,0.9602133,57.61348,0,1156,3.9592,25.40279,4.9392,43690,67.21493,1012.45,0.004801066,3.763,1010.65,0,144.741216462,21.23,140.7075,2.7832,2.70386666607,1.80078
2021-08-01T16:50:33Z,13.03019,21.67144,0.9520269,62.38186,0,1156,3.9004,25.37116,4.704,43690,66.64188,1012.45,0.004760134,4.351,1010.65,0,140.103890053,21.74,133.666,3.9004,3.81546666667,1.80078
2021-08-01T17:05:36Z,13.02997,21.50403,0.9481746,63.19556,0,1156,3.8024,25.5519,4.8804,43690,66.37222,1012.544,0.004740872,4.645,1010.744,0,140.037976475,21.74,156.3684,3.9396,3.89773254438,1.80078
2021-08-01T17:20:34Z,13.02419,20.65635,0.9375805,57.81467,0,1156,4.9588,25.73264,4.8412,43690,65.63063,1012.544,0.004687902,4.665,1010.744,0,146.012944515,20.99,147.7647,4.116,4.09383333333,1.80078
2021-08-01T17:35:37Z,13.02417,21.5697,0.9202445,63.32884,0,1156,3.1948,25.88627,5.0372,43690,64.41712,1012.544,0.004601222,4.273,1010.744,0,147.599195062,21.47,135.2267,3.6848,3.66044497041,1.80078
2021-08-01T17:50:38Z,13.01866,20.48716,0.8913514,57.40867,0,1156,4.018,26.15964,5.1744,43690,62.3946,1012.544,0.004456758,5.174,1010.744,0,144.290738853,20.66,145.1705,4.116,4.08375857988,1.80078
2021-08-01T18:05:35Z,13.01866,21.33289,0.8744972,63.15969,0,1156,4.8412,26.3449,5.1548,43690,61.2148,1011.963,0.004372486,5.155,1010.163,0,145.082212959,21.33,149.542,4.0376,4.02675,1.80078
2021-08-01T18:20:34Z,13.01315,20.92694,0.8605322,53.04467,0,1156,5.1352,26.43527,5.8408,43690,60.23725,1011.963,0.004302661,5.645,1010.163,0,144.642230477,21.16,149.4699,5.047,5.00535,1.80078
2021-08-01T18:35:37Z,13.00764,20.85928,0.8330838,50.23682,0,1156,5.4684,26.4669,6.5072,43690,58.31586,1011.963,0.004165418,5.88,1010.163,0,147.017315616,21.1,145.5068,4.9,4.87645680473,1.80078
2021-08-01T18:50:34Z,13.00764,21.53587,0.8032275,56.69825,0,1156,4.5472,26.4669,5.9192,43690,56.22593,1011.963,0.004016138,5.606,1010.163,0,145.380927918,21.37,140.655,4.7628,4.7502,1.80078
2021-08-01T19:05:39Z,13.00764,21.73885,0.7728898,54.49934,0,1156,4.802,26.5279,6.1152,43690,54.10229,1012.369,0.003864449,6.115,1010.568,0,144.434482537,21.77,143.1049,4.6256,4.64983905325,1.80078
2021-08-01T19:20:38Z,13.00764,21.29906,0.731958,53.85658,0,1156,5.292,26.62053,5.9976,43690,51.23706,1012.369,0.00365979,5.998,1010.568,0,146.543310292,21.37,144.0416,4.5864,4.5773,1.80078
2021-08-01T19:35:38Z,13.00764,21.40055,0.6982494,59.57376,0,1156,4.9196,26.4669,5.2332,43690,48.87746,1012.369,0.003491247,5.233,1010.568,0,144.134354253,21.84,145.723,4.1846,4.1538,1.80078
2021-08-01T19:50:35Z,13.01315,21.29906,0.6573175,60.89311,0,1156,2.5676,26.28164,5.684,43690,46.01223,1012.369,0.003286588,3.94,1010.568,0,145.116751133,21.37,140.9432,4.0278,3.92641666667,1.80078
2021-08-01T20:05:36Z,13.01315,21.73885,0.6173487,52.23276,0,1156,4.312,26.19127,4.6452,43690,43.21441,1011.963,0.003086744,4.018,1010.163,0,142.651519119,22.11,142.4564,3.5966,3.52065,1.80078
2021-08-01T20:20:39Z,13.01866,21.73885,0.5696752,59.2693,0,1156,2.9596,26.13027,4.4884,43690,39.87726,1011.963,0.002848376,4.449,1010.163,0,143.548743231,21.94,137.5325,3.332,3.33315976331,1.80078
2021-08-01T20:35:37Z,13.01866,21.33289,0.5220016,59.03249,0,1156,4.2728,25.91564,5.2528,43690,36.54011,1011.963,0.002610008,5.253,1010.163,0,145.945905108,21.54,137.9168,3.9592,3.91206666667,1.80078
2021-08-01T20:50:36Z,13.02977,20.62247,0.4757727,62.21246,0,1156,4.8804,25.58353,7.016799,43690,33.30409,1011.963,0.002378864,5.88,1010.163,0,148.993184207,20.72,150.791,4.3512,4.36216666071,1.80078
2021-08-01T21:05:36Z,13.03685,20.08773,0.4199128,62.55755,0,1156,5.1548,24.98257,7.2324,43690,29.39389,1012.639,0.002099564,7.232,1010.838,0,149.944905224,20.12,155.1793,5.2332,5.1820999881,1.80078
2021-08-01T21:20:39Z,13.05607,20.40571,0.3708473,62.74072,0,1156,3.43,23.9275,6.389599,43690,25.95931,1012.639,0.001854236,5.998,1010.838,0,149.102674682,20.47,144.546,4.6256,4.60924733136,1.80078
2021-08-01T21:35:41Z,13.07415,20.00349,0.3203374,61.35721,0,1156,3.43,22.92439,5.39,43690,22.42362,1012.639,0.001601687,4.547,1010.838,0,149.668710845,20.2,149.361,3.6848,3.68561183432,1.80078
2021-08-01T21:50:39Z,13.08098,19.30017,0.05636047,66.13728,0,1156,3.8416,22.39121,4.7824,43690,3.945233,1012.639,0.0002818023,4.567,1010.838,0,147.371517826,19.54,150.9416,3.822,3.72017278107,1.80078
2021-08-01T22:05:41Z,13.08807,19.34282,0.04528107,62.62648,0,1156,3.3712,22.08395,4.9588,43690,3.169675,1012.944,0.0002264053,4.88,1011.143,0,146.592650016,19.48,147.8154,3.4888,3.50897988166,1.80078
2021-08-01T22:20:38Z,13.09362,18.56464,0.1122392,68.58495,0,1156,5.8996,21.75184,6.1348,43690,7.856746,1012.944,0.0005611962,6.076,1011.143,0,144.819651264,18.73,143.7786,3.9102,4.13595,1.80078
2021-08-01T22:35:41Z,13.10465,18.12456,0.1368066,71.69937,0,1156,4.2532,21.25933,6.076,43690,9.576464,1012.944,0.000684033,4.998,1011.143,0,141.20079604,18.19,137.7938,4.704,4.68231242604,1.80078
2021-08-01T22:50:41Z,13.11568,17.27825,0.04480467,74.71223,0,1156,1.5092,20.63803,4.4884,43690,3.136327,1012.944,0.0002240233,1.842,1011.143,0,134.335614969,17.31,127.699,2.2344,2.3471,1.80078
2021-08-01T23:05:39Z,13.1267,16.83817,0.02987599,76.10018,0,1156,1.9404,20.02352,2.5088,43690,2.091319,1013.283,0.00014938,1.921,1011.483,0,129.66407736,16.87,132.9387,1.5876,1.6289,1.80078
2021-08-01T23:20:41Z,13.15113,16.68123,0.04095946,77.33569,0,1156,1.666,19.31185,2.0384,43690,2.867162,1013.283,0.0002047973,1.646,1011.483,0,143.581833514,16.78,153.3058,1.3524,1.36121419763,1.80078
2021-08-01T23:35:39Z,13.1697,15.87521,0.009155644,75.58391,0,1156,2.1364,18.53241,2.9596,43690,0.6408951,1013.283,4.577822e-05,2.803,1011.483,0,168.90538821,15.98,171.8372,1.4602,1.47618332798,1.80078
2021-08-01T23:50:43Z,13.19181,15.06265,0.002409733,80.66374,0,1156,1.274,17.61515,2.2344,43690,0.1686813,1013.283,1.204867e-05,1.823,1011.483,0,149.395215735,15.13,137.4799,1.4112,1.44170177337,1.80078
2021-08-02T00:05:41Z,13.21683,14.49823,0.000482035,84.10137,0,1156,1.0976,16.6866,2.058,43690,0.03374245,1013.177,2.410175e-06,1.431,1011.377,0.0,138.23144705,14.6,145.1075,1.4308,1.4178479462,1.80078
2021-08-02T00:20:44Z,13.23487,14.09875,0.0,84.07833,0,1156,0.8428,15.89586,1.1368,43690,0.0,1013.177,0.0,1.019,1011.377,0.0,158.044211101,14.23,182.43,0.5684,0.590962783721,1.80078
2021-08-02T00:35:43Z,13.24593,14.0989,0.0,83.19781,0,1156,1.078,15.21357,1.4896,43690,0.0,1013.177,0.0,1.0,1011.377,0.0,168.245167172,14.23,148.4939,1.1172,1.09213021977,1.80078
2021-08-02T00:50:45Z,13.25726,13.55776,0.0,85.06232,0,1156,1.0584,14.66005,1.1368,43690,0.0,1013.177,0.0,0.9020001,1011.377,0.0,160.701487442,13.73,168.772,0.784,0.777202291908,1.80078
2021-08-02T01:05:46Z,13.25992,13.67061,0.0,85.69001,0,1156,1.3524,14.1811,2.0384,43690,0.0,1013.761,0.0,2.038,1011.96,0.0,154.051831838,13.77,163.8516,1.2348,1.28725881118,1.80078
2021-08-02T01:20:43Z,13.27798,14.08319,0.0,86.27557,0,1156,1.6268,13.80154,3.43,43690,0.0,1013.761,0.0,2.842,1011.96,0.0,147.524940928,14.12,131.269,1.3916,1.52856940882,1.80078
2021-08-02T01:35:42Z,13.27802,14.21891,0.0,84.61538,0,1156,0.5488,13.56432,2.2736,43690,0.0,1013.761,0.0,1.039,1011.96,0.0,159.835517888,14.22,162.6913,1.1368,1.1516449574,1.80078
2021-08-02T01:50:46Z,13.28354,13.91393,0.0,85.80142,0,1156,1.8032,13.3994,1.9012,43690,0.0,1013.761,0.0,1.45,1011.96,0.0,149.05747119,13.95,161.368,0.9506,0.978016647024,1.80078
2021-08-02T02:05:46Z,13.27802,14.11725,0.0,85.56421,0,1156,1.6856,13.28191,2.5088,43690,0.0,1014.048,0.0,2.136,1012.247,0.0,163.012265754,14.22,153.2358,1.5876,1.60766390414,1.80078
2021-08-02T02:20:43Z,13.28354,14.18502,0.0,86.00474,0,1156,1.7052,13.16443,2.2932,43690,0.0,1014.048,0.0,2.215,1012.247,0.0,162.925145225,14.29,159.9966,1.7542,1.75175,1.80078
2021-08-02T02:35:46Z,13.28905,13.10064,0.0,88.13961,0,1156,3.3124,13.04695,3.1752,43690,0.0,1014.048,0.0,2.568,1012.247,0.0,142.145132704,13.2,88.39511,1.3328,1.35776666071,1.80078
2021-08-02T02:50:43Z,13.28354,13.13559,0.0,88.6158,0,1156,1.4112,13.00177,3.822,43690,0.0,1014.048,0.0,1.196,1012.247,0.0,88.7112202186,13.3,73.14276,1.47,1.7544333256,1.80078
2021-08-02T03:05:46Z,13.28912,12.35629,0.0,90.68312,0,1156,1.7836,12.90687,2.3128,43690,0.0,1013.73,0.0,2.313,1011.929,0.0,87.6099779324,12.36,91.66925,1.7052,1.67145088757,1.80078
2021-08-02T03:20:47Z,13.29014,12.73257,0.0,90.68918,0,1156,1.5484,12.78939,1.7836,43690,0.0,1013.73,0.0,1.784,1011.929,0.0,94.972931107,12.77,89.48574,1.0976,1.0624591645,1.80078
2021-08-02T03:35:44Z,13.29636,12.19405,0.0,90.8651,0,1156,2.058,12.65158,2.4304,43690,0.0,1013.73,0.0,2.43,1011.929,0.0,88.0136777446,12.3,88.55364,1.9012,1.82384999643,1.80078
2021-08-02T03:50:45Z,13.29667,12.16064,0.0,90.42533,0,1156,1.47,12.5341,2.1756,43690,0.0,1013.73,0.0,1.529,1011.929,0.0,87.9236406429,12.36,91.85118,1.568,1.62830769231,1.80078
2021-08-02T04:05:46Z,13.30786,12.16064,0.0,90.96762,0,1156,1.9012,12.39402,2.0972,43690,0.0,1013.646,0.0,1.94,1011.845,0.0,88.6222362195,12.33,88.48227,1.5484,1.58446863905,1.80078
2021-08-02T04:20:46Z,13.30786,12.09285,0.0,91.23875,0,1156,1.4896,12.27881,2.1364,43690,0.0,1013.646,0.0,1.568,1011.845,0.0,90.5508849375,12.23,87.85662,1.4896,1.54782011834,1.80078
2021-08-02T04:35:47Z,13.3085,11.75341,0.0,91.88178,0,1156,1.5288,12.14099,2.0972,43690,0.0,1013.646,0.0,1.784,1011.845,0.0,88.1928570124,11.89,87.95198,1.6072,1.62761183432,1.80078
2021-08-02T04:50:47Z,13.31407,11.85655,0.0,91.40988,0,1156,1.7836,12.00091,2.2736,43690,0.0,1013.646,0.0,1.98,1011.845,0.0,89.23504481,11.89,90.72186,1.764,1.7677112426,1.80078
2021-08-02T05:05:47Z,13.3098,11.86253,0.0,91.01366,0,1156,1.5092,11.90828,1.764,43690,0.0,1013.361,0.0,1.764,1011.56,0.0,89.9614899449,12.0,89.8659,1.4504,1.37304377811,1.80078
2021-08-02T05:20:47Z,13.31564,11.82969,0.0,91.2189,0,1156,1.4504,11.84051,1.7444,43690,0.0,1013.361,0.0,1.294,1011.56,0.0,90.4884994971,11.97,87.38879,1.1368,1.12810176331,1.80078
2021-08-02T05:35:46Z,13.32071,11.59299,0.0,91.93178,0,1156,1.8032,11.65525,2.3716,43690,0.0,1013.361,0.0,1.725,1011.56,0.0,86.9958203636,11.56,88.1118,1.6856,1.7074035503,1.80078
2021-08-02T05:50:46Z,13.32667,11.25424,0.0,91.66102,0,1156,2.8028,11.51744,3.1556,43690,0.0,1013.361,0.0,3.156,1011.56,0.0,88.5543749095,11.32,89.26746,2.6852,2.63869349112,1.80078
2021-08-02T06:05:46Z,13.32668,11.38983,0.0,92.27118,0,1156,2.5872,11.40448,3.0184,43690,0.0,1013.001,0.0,2.764,1011.2,0.0,89.2692166984,11.39,89.5322,2.4892,2.50172544379,1.80078
2021-08-02T06:20:47Z,13.32116,11.38983,0.0,91.79661,0,1156,2.6852,11.31184,2.8224,43690,0.0,1013.001,0.0,2.822,1011.2,0.0,88.6277051885,11.46,87.94373,2.3912,2.42460118343,1.80078
2021-08-02T06:35:47Z,13.3322,11.9661,0.0,90.91526,0,1156,3.1556,11.26666,3.2732,43690,0.0,1013.001,0.0,3.018,1011.2,0.0,88.8754572534,12.0,89.62847,2.9596,2.92956213018,1.80078
2021-08-02T06:50:47Z,13.32116,12.44068,0.0,89.8305,0,1156,2.9792,11.35703,3.5868,43690,0.0,1013.001,0.0,3.391,1011.2,0.0,89.3852606116,12.44,87.67898,2.9988,3.02512662722,1.80078
2021-08-02T07:05:52Z,13.31564,12.61017,0.0,90.0,0,1156,3.0184,11.51744,3.6456,43690,0.0,1012.838,0.0,3.195,1011.037,0.0,89.0819160879,12.61,90.47085,2.989,2.99833882353,1.80078
2021-08-02T07:20:50Z,13.31564,12.40678,0.0,90.81356,0,1156,2.9008,11.63266,3.332,43690,0.0,1012.838,0.0,3.077,1011.037,0.0,88.871546357,12.37,87.91966,2.842,2.80604733728,1.80078